Location: Pagani
(40.7500°N, 14.6167°E)
Time: 15:42:41
(UTC+00:00)

Cosmos 2058 Rocket - Pass Details

Date: 15 May 2026
Orbit: 604 x 632 km, 82.5° (Epoch: 10 June)

Event Time Altitude Azimuth Distance (km) Brightness Sun altitude
Exits shadow 20:53:54 29° 61° (ENE) 1,128 4.3 -23.6°
Drops below altitude 10° 20:56:42 10° 27° (NNE) 1,962 6.0 -23.9°
Sets 20:59:04 0° 18° (NNE) 2,868 7.1 -24.2°
